Theta_e
291 290 289 289 288 287 286 285 284 284 283 282 282 281 281 281 280 280 279 279 279 278 278 277 277 277 277 276 276 276 276 276 275 275 275 275 275 275 275 275 274 274 274 274 275 275 275 275 275 275 275 275 276 276 276 276 276 276 277 277 277 277 277 277 277 277 278 278 278 278 278 278 279 280 281 281 282 283 284 285 286 287 288 288 291
291 290 289 288 287 286 285 284 284 283 282 282 281 281 280 280 279 279 279 278 278 277 277 277 276 276 276 275 275 275 275 275 274 274 274 274 274 274 274 274 274 274 274 274 274 274 274 274 274 274 275 275 276 276 275 275 275 275 276 276 276 277 277 277 277 277 277 277 278 278 278 278 278 279 280 281 282 283 284 285 285 286 287 288 290
290 289 288 287 286 286 284 284 283 282 281 281 281 280 280 279 279 279 278 278 277 277 276 276 275 275 275 274 274 274 274 274 274 274 274 273 273 273 273 273 273 273 273 273 273 273 274 274 274 274 275 275 276 275 274 274 274 274 275 275 275 276 276 276 276 277 277 277 277 277 277 278 278 279 280 281 282 283 284 286 286 287 289 290 291
289 288 287 286 285 284 283 283 282 281 281 280 280 280 279 279 278 278 278 277 276 276 276 275 275 274 274 274 274 274 274 273 273 273 273 273 273 273 273 273 273 273 273 273 273 273 273 273 273 274 275 275 275 274 273 273 274 274 274 274 275 275 275 275 276 276 277 277 277 277 277 278 278 279 280 281 282 283 284 285 286 288 290 292 293
289 287 286 285 284 283 282 281 281 280 280 280 279 279 278 278 278 277 277 276 276 276 275 275 274 274 274 273 273 273 273 273 273 273 273 273 273 273 273 273 273 273 273 273 273 273 273 273 274 274 274 274 273 273 273 273 273 273 274 274 274 274 275 275 275 276 277 277 277 277 278 278 279 279 280 281 282 283 284 285 286 288 290 292 293
288 286 285 284 283 282 281 281 280 280 279 279 279 278 278 277 277 277 276 276 275 275 275 274 274 273 273 273 273 273 273 273 272 272 272 272 272 273 273 273 273 273 273 273 273 273 273 274 274 273 273 273 273 273 273 273 273 273 274 274 274 274 275 275 275 276 276 277 277 277 278 278 278 279 279 279 281 283 284 286 287 288 290 291 293
287 285 284 283 282 281 280 280 279 279 279 279 278 278 277 277 276 276 276 275 275 275 275 274 273 273 273 273 273 273 273 272 272 272 273 273 273 273 273 273 273 273 273 273 273 273 273 273 273 273 273 273 273 273 273 273 274 274 274 274 274 274 275 275 275 276 276 276 277 277 277 278 278 279 280 280 281 281 282 285 287 288 290 291 292
285 284 283 282 281 280 280 280 279 279 279 278 277 277 277 277 276 275 275 275 275 276 275 274 273 272 273 273 273 273 272 272 272 272 272 272 272 273 273 273 273 274 274 274 274 274 274 274 274 274 274 273 273 273 274 274 274 274 274 274 275 275 275 275 275 276 276 276 277 277 277 278 278 279 280 281 282 282 282 284 287 289 291 292 293
284 283 282 281 281 280 279 279 279 278 278 277 277 277 276 276 276 275 275 275 276 276 275 273 272 272 272 272 272 272 272 272 272 273 272 272 273 273 274 274 274 274 274 275 275 275 275 275 275 275 275 275 275 275 275 275 275 275 275 275 275 275 275 275 276 276 276 277 277 277 277 278 278 279 280 281 282 283 284 285 287 289 291 293 294
283 282 281 280 280 279 279 278 278 278 277 277 276 276 276 276 276 275 275 275 275 275 275 273 272 271 272 272 272 272 272 272 272 273 273 273 274 274 274 275 275 275 275 275 275 276 276 276 276 276 276 277 277 277 277 277 277 277 276 276 276 276 276 276 276 276 276 277 277 277 277 278 278 279 279 280 281 283 284 286 288 289 291 293 294
282 281 280 280 280 279 278 278 277 277 277 276 276 276 276 276 276 275 275 275 275 275 274 272 271 271 271 272 272 272 272 272 272 273 273 274 274 275 275 275 275 275 276 276 276 276 276 276 276 276 276 276 276 277 277 277 278 278 278 277 277 277 277 277 277 276 277 277 277 278 278 278 278 279 279 279 280 282 283 284 288 291 292 293 294
281 281 280 280 279 278 278 277 277 276 276 276 276 276 276 275 275 275 275 275 275 274 273 271 271 271 271 271 271 271 272 272 272 272 273 274 275 275 275 275 276 276 276 276 276 276 276 276 276 276 276 276 276 276 276 276 277 277 277 278 278 278 279 279 278 278 278 278 278 279 279 279 279 279 280 280 280 281 282 283 287 290 292 293 293
281 280 280 279 278 278 277 277 277 276 276 276 276 276 276 275 275 275 274 274 274 273 271 271 271 271 271 271 271 271 272 273 272 272 273 274 275 275 276 276 276 276 276 276 276 276 276 276 275 275 276 276 276 276 276 276 276 276 276 277 277 278 278 279 279 279 279 280 280 280 280 280 280 280 280 280 281 282 283 284 286 288 291 292 293
280 280 279 278 277 277 277 277 276 276 275 276 276 275 275 275 274 274 274 274 272 271 271 271 271 271 271 271 270 271 272 273 272 272 273 274 275 276 276 276 275 275 275 275 275 275 275 275 275 275 275 276 276 276 276 276 276 276 276 276 277 277 278 278 279 279 279 280 280 280 280 280 281 281 281 281 281 281 282 283 284 286 288 290 291
279 279 278 277 277 277 276 276 275 275 275 275 275 274 274 274 274 274 273 272 270 270 270 271 271 271 272 271 270 270 272 273 272 272 274 274 275 276 275 275 275 275 275 275 275 275 275 275 275 275 275 276 276 276 276 276 277 276 276 277 277 277 277 278 278 279 279 279 279 280 280 280 280 280 280 280 281 281 281 282 283 285 287 288 289
278 278 277 276 276 276 276 275 274 274 274 274 274 274 274 274 273 273 272 270 269 269 270 271 271 271 272 271 270 270 272 272 271 272 273 274 275 275 274 274 275 274 275 275 275 275 275 275 276 276 276 276 276 276 277 277 277 277 277 278 278 278 278 278 278 279 279 279 279 279 280 280 280 280 280 280 280 280 281 281 283 285 286 287 289
277 277 276 276 275 275 275 275 274 273 273 273 273 273 273 273 273 272 270 269 268 269 270 271 272 271 271 271 270 269 271 272 271 272 273 274 274 274 274 274 274 274 275 275 275 275 275 276 276 276 276 276 276 276 277 277 278 278 278 278 278 279 279 279 279 279 279 280 280 280 280 280 280 280 281 281 281 281 282 282 283 285 287 287 289
277 276 276 275 275 275 275 275 274 273 273 273 273 273 272 272 272 271 270 269 269 269 270 271 272 271 270 270 269 268 269 271 271 272 273 273 274 274 274 274 274 274 275 275 275 275 275 276 276 275 275 275 275 276 277 277 278 278 278 278 279 279 279 279 279 280 280 280 280 280 281 281 281 281 281 282 282 282 283 283 284 285 287 288 289
276 276 275 275 275 275 275 274 274 273 273 273 273 273 272 271 271 270 269 269 269 269 269 270 271 271 270 269 269 269 269 270 271 272 273 273 274 274 274 274 274 275 275 275 275 275 275 275 275 275 275 275 275 276 277 277 277 278 278 278 279 279 279 279 280 280 280 281 281 281 281 281 281 281 281 281 282 282 282 284 285 285 286 288 289
276 275 275 274 274 274 274 273 273 273 273 273 272 272 271 271 269 268 268 268 268 268 269 269 270 270 270 269 269 269 269 270 270 271 272 273 273 274 274 274 275 275 275 275 275 275 275 274 274 274 274 275 275 276 276 277 277 278 278 279 279 279 279 279 279 280 281 281 281 281 281 281 281 281 281 281 282 283 283 284 285 286 286 288 289
275 275 274 273 273 273 273 273 273 273 273 273 272 271 271 270 268 268 268 268 268 268 269 269 269 269 269 269 269 270 270 270 271 271 272 272 273 274 274 274 275 275 275 275 275 274 274 273 273 273 273 274 275 276 276 277 278 278 278 279 279 279 280 280 280 280 281 281 282 282 282 281 281 281 282 282 283 284 285 286 286 286 287 287 288
275 274 273 272 272 272 272 272 272 272 272 271 271 270 269 268 268 268 267 268 268 269 268 268 268 268 268 269 270 270 270 270 271 271 271 272 273 274 274 275 275 275 275 274 274 273 273 272 272 272 273 274 275 276 276 277 277 277 278 278 279 280 281 281 281 281 281 282 282 282 282 282 282 282 283 283 283 284 285 287 287 287 287 288 288
273 272 271 270 270 270 271 271 271 271 271 271 270 269 268 268 268 267 267 268 268 268 268 267 268 268 269 270 270 270 270 270 270 271 271 272 273 274 274 275 275 275 274 274 273 272 272 272 272 273 274 274 275 275 275 276 276 276 277 277 279 280 282 282 282 282 282 282 282 282 282 282 282 283 283 284 285 285 285 287 288 288 288 288 288
272 270 269 269 269 269 270 270 270 270 270 270 269 268 267 267 267 267 267 268 267 267 268 268 268 269 269 270 270 270 270 270 270 270 271 272 273 274 274 274 274 274 273 273 272 272 272 272 273 273 273 274 274 274 274 274 274 275 276 277 277 280 283 283 282 282 283 283 283 282 282 282 282 283 283 284 285 285 286 287 288 289 289 289 288
270 269 268 268 268 269 269 269 269 270 269 269 268 267 266 266 266 266 267 267 267 267 268 268 268 269 269 269 269 269 269 269 269 270 270 272 273 273 273 273 273 273 272 272 271 272 272 272 272 272 272 272 273 273 272 272 273 274 275 275 275 277 281 283 283 283 283 283 284 283 283 283 283 283 284 284 284 285 286 287 289 289 289 289 289
268 268 267 267 268 268 268 268 268 268 268 268 268 267 266 266 266 266 266 267 267 267 268 268 269 269 269 269 269 269 269 269 269 270 271 272 272 273 273 272 272 272 271 271 271 272 271 271 270 271 271 271 271 271 271 272 272 272 273 273 273 274 277 280 282 283 283 284 284 284 284 284 284 284 284 285 285 286 286 287 289 289 290 290 290
267 266 266 266 267 268 268 267 267 266 266 267 266 266 266 267 266 266 267 267 267 267 268 269 269 269 269 269 269 269 269 269 269 270 271 272 272 272 272 272 271 271 270 271 271 270 269 269 269 270 270 270 270 271 271 271 271 271 271 272 272 273 274 276 278 281 283 285 285 285 285 285 285 285 285 285 286 287 287 288 289 289 290 290 290
267 266 266 266 266 266 266 266 266 266 266 266 266 265 266 267 266 267 267 267 267 268 268 269 269 269 269 269 269 269 269 269 270 271 272 272 272 272 272 271 271 270 270 271 271 269 268 268 268 268 269 269 269 270 270 270 270 271 271 271 272 272 273 274 275 277 280 283 284 285 285 285 285 286 286 286 287 287 288 288 289 290 290 290 290
266 265 265 265 264 264 265 265 265 265 265 265 265 266 267 267 267 267 267 267 267 268 268 269 269 269 268 268 268 269 269 269 270 272 272 272 272 272 272 271 271 270 271 271 269 268 267 267 268 268 268 268 269 269 269 270 270 270 270 271 271 272 272 273 274 275 276 278 280 283 285 285 285 286 286 287 287 287 288 288 289 290 290 291 291
265 264 264 264 264 264 265 265 265 265 265 265 265 266 266 267 267 267 267 267 268 268 269 269 269 269 268 268 269 269 269 270 271 272 272 272 272 272 271 271 270 270 270 270 268 267 267 267 267 267 268 268 268 269 269 269 270 270 270 270 271 271 272 272 273 273 274 274 276 279 283 285 286 286 286 286 287 287 288 288 289 290 291 291 291
264 263 263 264 264 264 264 264 265 265 265 265 265 265 265 266 267 267 267 267 267 268 268 268 268 269 269 269 268 269 269 270 271 271 271 271 271 271 271 270 269 269 269 268 266 266 266 266 266 267 267 267 268 268 268 269 269 270 270 270 270 271 271 272 272 272 273 273 274 276 279 283 285 286 287 287 287 288 288 289 290 291 291 291 292
264 264 264 264 264 264 264 264 265 265 265 265 265 265 266 266 267 267 267 266 267 268 268 268 268 268 268 269 269 269 269 270 270 270 270 270 270 270 269 269 268 269 268 266 265 265 266 266 266 266 267 267 267 268 268 269 269 269 270 270 270 271 271 271 272 272 272 273 274 275 277 278 282 285 288 288 288 289 289 290 290 291 292 292 292
266 265 265 264 264 265 265 265 265 265 265 265 265 266 267 267 267 268 267 266 266 267 267 266 267 267 267 267 268 269 269 270 270 270 270 269 269 269 268 267 267 268 267 265 264 265 265 265 265 266 266 266 267 267 268 268 268 269 270 270 270 270 270 271 271 271 272 272 273 273 274 275 278 282 286 289 290 290 290 290 291 291 292 292 293
268 267 266 266 265 265 265 265 265 265 265 265 265 266 266 266 267 267 266 266 266 266 266 265 266 267 267 267 267 268 269 269 269 269 269 269 268 267 266 266 266 266 265 264 264 264 264 264 265 265 265 266 266 267 267 268 268 268 269 270 270 270 270 271 271 271 271 272 272 272 272 274 276 278 282 286 289 290 290 290 291 291 291 292 293
268 267 267 267 266 266 266 266 266 266 265 265 265 265 265 265 265 264 264 264 264 264 264 265 266 266 266 266 266 266 267 268 268 268 268 267 267 266 265 264 264 264 264 264 263 263 264 264 264 265 265 265 266 267 267 267 267 268 269 269 270 270 270 270 271 271 271 271 271 271 271 272 274 275 278 282 286 289 291 291 291 291 292 292 293
266 266 266 266 266 266 266 266 266 266 266 265 265 266 265 264 264 264 264 264 263 262 263 265 265 266 265 266 266 266 266 267 267 267 266 266 266 265 263 262 262 262 263 263 263 263 263 263 264 264 264 265 265 266 267 267 267 267 268 269 270 270 270 271 271 271 271 270 270 271 271 271 272 273 275 278 282 286 290 292 292 292 293 293 294
266 265 265 266 266 266 266 266 266 266 266 265 266 265 265 265 265 264 264 264 263 263 263 264 264 265 265 265 266 266 266 265 266 266 266 266 266 265 262 261 261 262 261 261 262 262 262 263 263 264 264 265 265 266 266 267 267 267 268 269 269 270 270 271 271 270 270 270 270 270 270 270 271 272 273 276 279 283 288 291 292 292 293 294 295
266 266 266 266 266 266 265 265 265 265 265 265 265 264 264 264 264 264 263 263 263 262 262 262 262 262 262 263 265 265 265 265 266 266 265 265 264 263 261 260 260 261 260 260 261 261 262 262 263 263 264 264 265 265 266 266 267 267 267 268 269 270 270 271 270 270 270 269 269 269 270 270 270 271 272 274 276 279 284 289 292 293 293 294 295
266 267 266 266 266 265 265 264 264 264 264 263 263 263 263 262 262 261 262 261 261 260 260 260 260 260 261 262 263 263 263 263 263 263 262 262 262 261 260 260 260 260 260 260 260 260 261 262 262 263 264 264 265 265 265 266 266 267 267 268 269 270 270 270 270 270 269 269 269 269 269 269 270 270 271 272 274 277 281 286 291 293 294 295 296
266 266 265 265 265 265 264 264 263 263 262 262 262 262 262 261 261 261 261 260 259 259 259 259 259 260 260 261 262 262 262 261 260 259 259 260 261 261 260 259 259 259 259 259 260 260 260 261 262 263 263 264 264 265 265 266 266 266 267 268 269 270 270 270 270 269 269 269 269 269 269 269 269 270 271 272 274 276 279 283 288 293 295 296 297
265 265 265 265 264 264 263 263 263 263 262 262 262 261 261 262 262 262 262 261 259 259 259 259 259 260 260 261 262 262 261 260 259 259 259 260 260 260 260 259 259 259 259 259 259 260 260 261 262 262 263 264 264 265 265 266 266 266 267 268 270 270 270 270 270 269 269 269 269 269 269 269 269 270 271 272 273 275 277 281 287 293 296 297 297
265 265 265 264 264 264 263 262 262 262 262 261 261 262 262 262 262 262 262 261 260 260 260 259 260 260 260 260 260 261 261 260 260 260 260 260 260 260 260 260 260 259 259 259 259 259 260 261 261 262 263 264 264 265 265 265 266 266 267 268 270 270 270 270 270 269 269 269 269 269 269 269 269 270 270 271 273 274 276 280 286 293 296 297 297
265 265 264 264 264 264 263 262 262 261 261 261 261 262 262 262 262 262 262 261 261 261 260 260 260 260 261 260 260 261 261 261 260 260 261 261 261 261 261 261 261 261 261 261 261 260 260 260 261 262 263 264 264 265 265 266 266 266 267 269 270 270 270 270 270 269 269 268 268 268 269 269 269 269 270 271 272 274 276 280 286 293 296 297 297
265 264 263 263 263 262 262 262 261 261 261 261 261 262 262 262 262 262 261 261 261 261 261 260 260 261 261 261 261 261 261 261 261 261 261 261 261 261 261 261 262 262 263 263 263 262 261 261 262 262 263 264 265 265 266 267 267 267 268 269 270 270 270 270 270 269 269 268 268 268 268 268 269 269 270 271 272 274 276 280 286 292 296 297 297
264 263 263 262 262 261 261 261 261 261 260 260 260 260 261 261 261 261 261 261 260 260 260 260 261 261 261 261 261 261 261 261 261 261 261 261 261 261 261 262 262 263 263 264 264 263 263 262 262 263 263 264 265 266 266 267 267 268 269 270 271 270 270 270 270 269 268 268 268 268 268 268 268 269 269 270 271 273 275 278 284 291 295 296 297
264 263 262 262 261 260 260 260 260 260 260 260 259 259 260 260 261 261 260 260 260 260 260 260 261 261 261 261 261 261 261 261 261 261 261 261 261 261 262 262 263 263 263 264 264 264 264 264 264 263 263 264 265 265 266 267 268 269 270 270 271 271 270 270 269 269 268 268 268 268 268 268 268 269 269 270 271 272 274 277 283 290 294 295 296
263 263 262 262 261 260 260 260 260 260 260 260 259 259 259 260 260 260 260 260 261 261 260 260 261 261 260 260 261 261 261 262 262 262 262 261 261 261 262 262 262 263 263 264 264 264 264 265 265 264 264 264 265 265 266 267 268 268 269 270 271 271 270 270 269 269 268 268 268 268 268 268 268 268 269 269 270 271 273 276 282 290 294 294 295
262 262 261 261 260 260 259 259 259 259 260 260 259 259 260 260 260 260 260 260 260 260 261 260 260 260 260 261 261 261 261 262 262 262 262 262 262 262 262 262 262 263 263 264 264 264 264 265 265 265 264 265 265 266 267 267 268 268 269 270 271 271 270 270 269 269 268 268 268 268 268 268 268 268 268 269 269 270 272 274 279 286 292 293 294
262 261 261 261 260 260 259 259 259 259 259 259 259 259 259 260 260 260 260 260 260 260 261 260 260 260 260 261 261 261 262 262 262 262 262 262 262 262 262 262 262 262 263 263 264 264 264 265 265 265 265 265 265 266 267 267 267 268 269 270 271 271 270 270 269 269 268 268 268 268 268 268 268 268 268 268 269 269 271 273 275 281 288 293 293
262 262 261 261 261 260 260 260 260 259 259 260 259 259 259 259 259 259 260 260 260 260 260 260 260 261 261 261 261 261 262 262 262 262 262 262 262 262 262 262 262 262 262 263 263 264 264 264 265 265 265 265 266 267 267 267 267 268 269 270 271 271 271 270 269 269 268 268 268 268 267 267 268 268 268 268 268 269 270 271 273 276 282 289 293
262 262 262 262 261 261 260 260 260 259 260 260 260 259 259 259 259 259 259 260 260 260 260 260 260 261 261 261 261 262 262 262 262 262 262 262 262 262 262 262 262 262 262 263 263 263 264 264 264 265 265 266 266 267 267 267 268 268 269 270 271 271 271 270 269 269 268 268 268 268 267 267 267 267 267 268 268 268 269 270 271 273 275 281 288
Wind_Speed
39 38 37 38 37 35 33 31 29 27 27 26 24 23 22 20 19 18 16 16 15 15 14 14 14 14 14 15 16 16 16 16 16 16 16 17 17 17 17 18 19 20 21 21 21 22 23 25 25 25 25 26 27 26 28 31 31 30 30 31 32 32 31 27 19 20 34 38 33 35 36 33 36 39 38 39 40 38 39 41 43 46 47 46 44
40 40 38 38 38 36 33 31 29 28 27 25 24 23 22 20 19 18 17 16 15 14 14 14 14 14 15 16 16 16 16 16 16 15 16 17 17 17 17 18 19 20 20 21 22 22 23 25 25 25 25 25 27 29 30 31 30 30 31 31 33 33 30 30 25 18 25 34 32 31 34 34 36 38 37 37 41 40 39 41 42 44 45 44 44
40 40 38 38 37 35 33 31 29 28 27 25 24 23 22 20 18 18 17 15 14 14 15 15 15 14 15 15 16 16 16 16 15 15 16 17 18 18 18 19 20 21 21 22 22 22 23 25 25 25 25 26 29 31 31 31 30 31 32 32 33 34 32 32 31 24 21 28 32 31 33 34 35 36 37 38 42 42 40 40 40 41 42 40 39
39 39 38 37 36 34 32 30 30 28 27 26 24 22 21 19 18 17 16 14 14 14 15 15 15 14 15 15 15 15 15 15 15 15 16 17 18 19 19 20 20 21 22 22 23 23 24 25 25 25 26 29 31 32 30 30 31 32 32 32 33 35 34 32 33 32 27 27 31 32 33 35 35 34 35 35 39 42 41 40 40 40 42 41 38
39 39 38 36 35 33 32 30 30 29 27 25 23 21 20 19 18 17 16 15 15 14 14 14 14 14 15 15 15 14 15 15 15 16 17 18 19 19 20 20 21 21 22 23 23 23 24 26 26 26 28 31 31 31 31 31 32 33 34 33 33 33 33 32 32 34 33 29 30 31 32 35 36 35 37 38 38 39 38 39 41 41 41 41 40
39 38 37 36 34 32 32 31 30 29 27 25 23 21 20 19 18 17 16 16 15 14 14 14 14 15 15 14 14 15 15 15 15 16 17 18 18 19 20 20 21 21 22 23 23 24 26 28 30 31 31 33 33 33 34 34 33 35 36 35 34 33 33 33 31 32 33 33 32 32 31 33 35 36 37 39 38 36 35 36 37 38 38 38 39
39 37 36 36 33 32 32 31 30 28 27 25 22 21 20 19 18 17 17 16 14 14 13 13 14 14 14 13 14 14 14 14 15 16 17 18 18 18 19 20 21 22 23 24 26 27 29 30 32 34 34 35 36 36 37 37 37 37 38 37 35 34 34 33 32 31 31 31 30 30 30 30 31 33 33 33 34 37 37 32 30 34 35 34 36
37 36 35 34 32 31 31 30 29 27 26 24 22 21 21 19 17 17 17 16 14 13 12 13 13 13 13 13 13 14 14 14 15 16 17 17 17 18 19 20 22 23 24 26 27 28 30 32 34 36 37 38 39 39 39 39 38 38 39 38 36 36 35 33 31 29 29 28 26 27 29 27 27 31 33 30 27 29 32 29 27 32 34 32 34
35 34 32 30 29 30 30 28 27 26 25 24 23 21 20 19 18 17 16 15 13 12 12 12 13 12 12 12 12 13 14 14 16 17 16 17 17 18 19 20 22 23 24 25 27 28 29 31 33 35 36 38 39 41 42 41 40 40 39 35 34 34 34 32 29 26 25 24 22 22 23 22 23 26 27 28 26 25 30 30 28 33 35 31 31
34 32 28 27 28 29 28 27 26 25 25 23 22 21 19 19 18 17 15 13 12 11 11 11 11 10 10 11 12 13 14 16 18 18 17 18 19 19 21 22 23 24 24 25 27 28 29 30 32 34 36 38 39 41 42 43 44 45 44 39 37 34 32 31 29 27 24 19 19 20 16 15 22 26 26 31 33 32 32 28 26 31 30 23 23
33 31 27 27 29 29 28 27 26 25 25 23 22 21 20 19 18 16 14 13 11 11 11 9 9 9 10 11 12 14 16 18 19 18 18 19 20 21 23 25 26 25 25 25 27 29 31 32 34 36 37 37 38 39 41 43 44 46 47 47 46 43 38 33 27 26 24 19 20 23 17 14 23 29 29 32 34 34 35 33 29 26 19 11 12
34 32 30 30 31 30 30 29 27 25 25 24 23 22 20 19 17 15 14 12 11 10 9 8 8 8 9 11 13 15 18 21 20 19 19 19 20 22 24 25 27 26 25 26 29 31 33 34 35 36 36 36 37 38 39 41 42 43 45 47 48 47 47 44 36 31 28 22 20 22 20 19 24 27 28 29 31 34 35 34 31 25 16 10 8
37 35 33 33 33 32 32 31 29 27 26 25 24 22 20 18 16 14 13 11 10 9 8 8 8 9 10 12 14 16 19 22 21 19 19 20 21 22 24 25 26 26 26 28 31 32 33 34 36 38 37 37 37 38 39 40 41 41 42 43 44 44 46 49 48 45 41 34 27 24 25 26 27 28 30 30 30 31 29 27 29 27 21 12 11
36 35 33 34 34 33 33 32 31 28 27 25 23 21 19 18 15 13 12 10 9 9 8 8 8 9 11 13 14 17 20 22 20 19 19 20 21 23 24 25 25 26 27 29 31 32 33 35 37 39 40 40 39 39 40 40 40 39 39 39 40 40 41 43 45 46 46 42 37 34 35 34 33 34 35 33 33 33 29 28 29 29 27 24 21
35 34 34 33 34 33 33 32 30 28 26 24 22 21 19 17 15 13 11 10 9 8 8 7 9 10 12 14 15 18 21 21 18 18 19 21 22 23 24 23 24 27 28 29 31 33 34 36 38 41 43 43 40 39 40 42 41 39 39 39 39 39 39 40 40 41 42 41 41 43 42 40 39 38 37 37 38 38 36 36 36 34 34 33 27
35 36 35 34 35 35 34 32 29 27 26 24 22 21 18 16 15 12 10 10 9 8 7 7 9 11 13 14 16 18 21 20 17 17 19 21 22 23 22 23 25 27 29 31 32 32 34 36 38 40 43 43 41 41 42 43 42 41 40 40 40 39 39 40 41 43 44 44 46 47 44 41 40 38 38 39 38 38 37 38 39 35 29 22 17
37 37 37 36 36 35 34 32 30 27 26 24 23 21 18 16 14 12 11 10 9 7 7 7 9 11 13 14 16 18 20 18 16 18 19 20 22 23 23 24 26 28 30 31 32 32 33 35 36 39 43 43 43 43 43 43 43 41 39 39 39 39 39 39 41 45 47 49 51 50 48 47 45 41 42 43 42 41 35 29 31 28 19 13 11
39 39 37 37 37 36 34 33 31 28 26 25 23 21 18 16 13 12 11 10 8 6 6 7 9 11 13 15 15 16 18 17 16 17 18 20 22 22 23 25 27 30 32 33 33 33 33 35 36 38 42 43 43 43 42 42 41 39 37 37 36 36 36 36 38 41 42 44 47 48 49 51 48 45 46 47 46 45 39 30 29 25 15 11 10
42 41 39 38 38 36 35 33 31 29 27 25 23 20 18 15 13 12 11 9 7 5 5 6 9 11 13 14 13 13 16 17 15 16 18 19 21 22 23 25 28 31 32 33 35 35 34 34 35 38 40 41 42 42 41 42 42 40 39 37 34 35 36 36 36 36 35 35 38 39 40 42 42 42 44 44 43 44 45 41 36 29 19 13 11
43 42 40 38 37 36 34 33 31 29 27 25 22 19 17 15 13 11 10 7 5 5 5 6 9 11 11 12 12 13 15 16 15 16 17 19 20 22 24 24 26 30 32 33 34 35 34 33 34 37 39 40 41 43 43 44 45 44 42 37 33 37 40 39 37 37 35 34 34 34 34 34 35 36 37 38 38 40 44 44 40 35 28 22 17
43 41 40 38 37 35 33 32 30 28 26 24 22 19 16 14 13 11 9 7 6 5 4 5 7 9 10 10 11 12 13 14 15 16 17 19 21 23 24 24 26 30 33 33 32 32 32 34 36 37 39 41 43 45 46 47 46 45 42 39 39 44 45 42 39 38 36 35 33 33 33 32 32 33 33 34 35 35 37 38 39 39 36 31 24
44 42 40 37 35 34 33 31 29 27 25 23 21 19 16 14 12 10 9 7 5 2 2 3 5 7 9 9 10 11 12 13 15 16 17 19 22 24 24 25 27 29 30 30 30 30 31 34 36 39 41 44 46 45 45 45 44 42 40 40 44 48 48 43 38 34 32 32 31 29 29 28 28 29 30 31 32 33 33 32 34 38 40 39 36
43 40 39 36 33 32 31 29 28 27 25 23 21 18 16 14 12 10 9 7 3 1 1 1 4 6 7 7 8 10 11 12 14 16 18 20 23 24 24 25 27 28 28 28 28 30 32 34 37 41 44 45 44 43 43 42 41 39 39 41 45 46 42 37 33 30 29 26 22 21 23 25 25 26 27 26 26 28 30 31 32 36 38 40 43
40 38 37 35 32 31 30 29 28 26 24 22 20 18 16 14 12 10 8 7 4 2 2 2 4 5 6 7 8 9 11 12 13 15 19 21 23 24 25 26 28 28 28 27 27 29 32 36 39 42 43 41 40 40 40 39 38 38 40 42 42 39 31 26 25 25 24 20 15 15 20 24 24 24 25 25 24 25 27 29 32 34 35 37 40
39 38 36 34 34 33 30 29 28 26 24 23 20 18 17 15 13 11 9 8 6 4 2 2 3 4 6 7 8 10 11 12 14 16 19 21 22 24 26 26 28 29 28 27 28 29 33 36 39 39 38 37 37 37 35 35 36 37 38 38 36 33 26 21 21 19 18 16 14 15 20 23 24 25 24 24 25 26 27 28 29 30 31 33 35
39 38 37 35 35 34 32 30 28 26 25 23 21 19 18 17 15 12 10 9 6 5 3 2 2 3 5 7 8 10 11 12 14 18 20 21 22 25 26 26 27 28 27 26 28 30 31 32 34 34 34 34 34 34 33 34 35 35 34 33 31 29 27 23 19 17 17 18 17 17 20 22 23 25 25 23 24 25 25 25 25 24 25 26 27
41 39 38 36 35 35 34 32 29 27 25 23 21 19 19 18 17 14 11 9 7 5 3 1 2 3 5 7 8 10 11 12 15 18 20 22 24 25 25 26 26 26 25 26 28 29 29 29 30 31 32 32 31 31 31 32 32 32 32 31 29 28 27 26 25 20 18 20 20 19 21 22 22 24 24 24 24 23 24 25 24 21 22 22 20
44 41 39 39 37 35 33 31 30 28 25 23 22 21 20 19 16 13 12 11 9 6 3 1 1 3 5 7 8 9 10 12 15 18 21 23 24 25 25 26 25 24 26 28 29 28 28 28 28 29 29 29 29 28 28 29 29 30 31 30 29 29 28 27 27 26 22 20 20 20 21 21 21 22 22 22 21 21 22 23 22 21 22 20 14
44 41 40 39 36 33 32 31 30 28 26 24 21 20 20 18 16 14 12 10 8 6 3 2 1 3 5 6 7 8 10 12 16 19 21 22 23 24 25 25 25 24 27 30 29 27 27 27 27 27 28 28 28 28 27 28 29 30 31 30 28 28 28 26 25 25 25 25 23 21 20 20 20 21 21 20 20 20 21 22 21 20 20 17 11
43 40 39 38 36 34 33 31 29 27 27 25 22 19 18 16 14 14 12 9 6 5 3 2 1 2 4 5 6 8 10 14 17 19 20 20 22 23 23 23 23 24 27 28 26 24 24 25 25 26 26 26 26 27 27 27 27 29 31 30 28 26 26 25 24 24 25 25 25 24 21 19 20 20 20 20 20 20 20 21 22 21 18 14 9
41 37 38 39 37 36 35 31 28 27 27 27 24 21 18 14 12 11 10 9 7 5 4 3 0 1 2 3 5 7 10 13 16 18 19 20 21 23 22 22 21 23 26 26 23 22 22 22 22 24 25 25 25 27 28 27 26 28 30 30 28 27 26 25 25 27 27 26 24 24 23 21 19 20 21 20 20 20 19 19 20 19 18 15 9
45 40 41 40 38 37 36 34 31 29 27 26 25 21 17 14 12 10 8 8 8 7 5 3 2 2 2 3 5 8 10 13 15 17 18 20 21 23 22 22 21 22 24 24 21 21 22 21 21 24 25 24 24 26 28 27 27 28 29 28 28 28 28 28 28 27 26 25 24 24 25 24 22 22 22 22 20 17 16 16 16 16 15 14 12
52 47 44 41 39 38 37 36 34 31 29 27 25 22 19 16 15 13 10 8 9 8 4 3 2 2 3 4 6 9 11 13 15 16 17 19 21 23 22 21 20 21 23 22 20 20 21 20 21 23 24 24 25 26 27 27 28 29 28 27 28 30 31 31 30 27 25 24 24 25 25 24 23 23 21 20 19 16 14 14 14 13 12 10 10
55 52 48 45 43 40 38 36 34 32 30 27 25 24 22 19 17 16 13 10 9 7 4 2 3 3 3 4 7 10 11 12 14 15 17 18 20 21 23 23 24 25 26 24 21 20 19 19 21 23 24 25 26 26 26 28 30 30 28 27 29 33 33 30 27 25 24 24 24 25 25 24 23 21 20 18 16 15 14 13 13 11 9 8 8
51 49 47 47 44 40 38 36 34 32 29 27 26 25 24 22 20 19 16 13 11 8 5 4 4 3 4 4 6 8 10 12 13 14 16 16 18 21 25 26 26 27 27 25 23 21 20 21 22 23 25 26 27 27 27 29 31 31 29 28 30 33 32 28 25 26 26 24 24 24 24 25 23 21 20 19 16 12 10 11 12 11 9 8 8
45 43 41 41 40 38 36 35 34 32 29 27 26 25 24 22 20 19 17 15 12 8 5 4 4 4 3 4 4 5 8 12 13 13 14 16 19 24 26 22 20 21 23 23 24 23 24 25 24 25 26 26 27 28 29 31 34 34 31 29 31 31 28 25 26 29 30 26 24 24 25 24 23 22 20 19 17 15 12 12 13 12 11 11 10
45 43 40 39 39 38 37 35 33 32 29 27 25 24 22 20 19 17 15 13 10 7 5 4 3 3 3 4 5 6 10 12 12 12 15 18 23 26 25 20 19 20 21 22 24 24 25 28 30 31 32 29 28 29 32 35 37 36 32 31 32 32 29 27 28 31 30 27 24 24 24 24 23 22 20 18 17 17 16 15 13 12 14 16 14
47 46 44 43 41 40 38 34 31 30 29 28 26 24 22 20 18 17 15 13 10 7 5 4 3 3 4 6 8 9 11 13 13 14 17 21 23 25 24 22 21 20 21 23 25 26 27 29 32 35 37 36 32 31 33 36 40 40 35 32 34 35 32 29 29 30 29 28 26 24 24 24 24 23 21 19 17 17 17 16 13 11 11 13 13
46 45 44 44 42 40 38 36 33 32 31 28 25 25 23 21 20 18 16 14 11 9 6 5 3 2 3 6 9 11 11 12 13 15 18 21 22 23 23 22 21 21 22 24 27 28 28 31 33 34 38 40 37 35 37 41 45 44 37 32 33 36 33 29 30 31 30 28 27 25 24 24 25 24 22 20 19 19 17 17 15 12 9 8 9
44 41 40 42 41 38 38 37 35 33 32 29 27 26 24 23 22 20 18 15 13 11 9 7 4 2 2 5 8 9 9 9 10 12 15 18 20 21 22 21 21 22 23 25 27 28 29 31 33 33 36 41 42 42 46 49 50 48 39 30 32 37 35 30 31 33 31 31 30 27 25 25 26 26 23 21 21 20 18 17 17 16 14 11 11
45 41 39 40 40 37 36 36 34 33 32 30 28 27 25 23 23 21 19 17 14 12 10 8 5 4 4 4 5 5 5 6 8 10 13 16 18 19 21 20 20 22 23 25 27 29 30 32 33 33 37 43 46 48 50 51 53 51 42 33 33 38 36 33 35 35 33 33 33 30 27 26 25 25 23 23 23 21 18 19 19 16 15 14 13
48 43 39 39 39 39 38 36 33 32 30 28 26 26 25 25 23 21 19 17 15 13 11 8 6 6 5 3 1 2 3 6 9 11 13 16 17 18 20 20 21 22 23 25 27 28 29 31 33 33 36 41 44 47 49 51 54 53 44 34 34 38 37 36 37 36 34 34 33 32 30 28 26 26 25 23 23 20 18 19 20 16 14 12 13
49 45 43 41 41 41 40 37 34 32 30 28 26 26 26 25 23 21 19 17 15 13 11 9 7 6 6 5 3 3 6 9 10 12 14 15 16 18 20 21 22 23 25 26 27 27 28 30 32 33 35 37 39 42 46 49 52 50 41 33 34 38 38 38 38 37 35 35 34 33 31 28 26 26 25 22 21 20 19 20 20 16 12 10 11
46 44 42 40 39 38 37 35 34 32 30 28 27 26 25 24 22 21 19 17 15 13 11 10 8 7 6 6 5 6 8 9 11 12 14 15 16 17 19 21 23 25 26 27 29 29 30 31 33 34 36 37 38 40 44 46 47 44 37 33 35 39 40 40 41 39 38 37 36 35 33 30 27 26 25 22 21 21 19 20 20 15 10 8 8
46 45 42 39 37 36 35 34 33 31 30 29 28 26 24 23 22 20 19 17 15 13 11 10 8 7 6 6 6 7 8 9 11 12 13 14 15 17 19 20 22 24 26 27 29 31 31 32 34 34 36 39 40 41 43 44 42 39 35 33 35 40 42 43 43 42 40 39 36 35 34 32 28 27 26 24 23 21 20 21 21 15 8 6 5
47 46 44 41 38 36 34 33 32 32 31 30 27 25 24 23 21 20 19 17 15 14 12 10 9 7 6 6 6 7 8 9 10 11 12 13 14 16 18 20 21 23 25 26 28 31 32 33 34 34 36 38 39 40 42 43 41 37 35 34 36 41 46 47 45 43 43 41 37 35 34 32 29 29 29 27 25 23 21 22 22 16 7 6 6
46 45 44 41 39 37 34 33 33 32 31 29 26 24 24 23 21 20 18 16 15 14 12 10 9 7 6 6 6 7 8 9 10 10 11 12 14 15 18 19 20 22 24 25 27 30 31 32 34 34 35 37 38 39 41 43 40 37 37 37 38 43 50 51 48 45 45 43 39 36 35 33 32 33 32 27 25 24 22 21 20 14 7 6 6
45 44 42 40 39 36 34 33 32 30 29 28 26 25 25 23 21 20 18 16 15 14 12 10 9 7 6 6 6 7 8 9 10 10 10 12 13 14 16 18 19 22 23 25 27 29 30 32 33 34 35 37 39 39 41 43 40 37 38 40 41 45 51 53 51 49 49 45 40 38 36 34 34 35 33 28 26 26 22 20 20 15 7 6 7
44 43 41 39 38 37 35 33 32 30 29 28 26 25 24 23 21 20 18 16 15 13 12 10 9 7 7 6 6 7 7 8 9 9 10 11 12 14 15 17 18 20 22 24 26 28 29 31 32 33 34 37 38 39 41 43 40 38 40 43 43 45 50 54 54 52 51 47 43 41 39 35 34 36 34 30 29 28 23 20 20 18 9 4 6
44 43 41 39 37 36 35 34 32 30 29 29 27 26 24 23 21 20 18 17 15 14 12 10 9 8 7 7 6 6 7 7 8 8 9 11 12 14 15 17 18 19 21 23 25 27 29 30 32 33 34 36 38 38 40 42 40 39 42 45 44 43 47 52 54 54 52 48 44 43 41 37 35 35 33 32 32 30 25 21 21 20 15 7 4
42 41 39 38 36 35 33 32 31 30 29 28 28 27 25 23 21 20 18 16 15 14 12 10 9 8 7 6 6 6 6 6 7 8 9 11 13 14 16 17 18 20 21 22 24 26 28 30 32 33 34 35 36 38 40 41 41 40 42 44 43 41 42 48 52 53 51 48 46 44 43 40 37 35 35 34 32 30 27 25 22 20 20 16 7
Wind_Direction
193 192 193 193 192 192 195 197 200 202 206 210 212 216 221 223 225 228 231 236 241 243 245 248 247 248 253 260 267 271 275 276 269 262 265 272 271 269 270 267 266 268 269 268 267 266 267 267 267 268 269 270 272 272 272 270 267 265 263 261 260 259 258 258 259 268 271 271 273 275 276 279 279 277 277 278 278 276 274 272 271 272 273 272 270
193 193 192 191 192 192 193 196 198 201 205 207 210 214 217 220 222 226 229 235 238 239 243 245 245 249 255 261 266 269 273 273 267 263 265 269 269 269 269 267 267 268 268 267 267 266 267 267 269 270 269 270 274 276 273 269 268 265 263 261 261 260 257 257 259 264 272 275 273 273 277 277 276 276 276 276 277 277 275 271 270 269 269 268 263
193 192 190 190 190 190 192 194 196 199 202 205 208 211 214 216 219 224 229 232 234 237 243 248 251 254 257 261 267 269 272 272 266 264 268 269 269 268 268 267 267 268 268 267 267 267 268 269 269 272 275 276 278 277 272 269 267 264 262 261 260 261 258 256 260 262 269 275 273 273 277 276 274 275 274 273 274 276 274 271 270 267 265 263 259
192 191 189 188 188 188 190 192 194 197 199 202 206 208 210 213 216 223 229 230 232 237 245 253 256 258 260 266 271 270 268 269 268 267 269 270 270 269 269 269 268 268 268 268 269 268 268 268 268 274 280 280 278 274 269 267 266 263 262 262 260 260 259 255 256 259 264 271 271 271 273 274 274 274 274 275 275 275 273 271 271 270 267 265 262
190 190 187 185 185 186 188 190 192 195 196 199 202 203 206 211 216 223 228 231 236 239 246 255 258 260 264 269 274 273 270 271 272 271 272 271 270 270 270 270 270 269 269 269 269 267 267 270 273 278 280 277 273 270 266 264 264 262 261 261 261 261 260 257 256 257 260 266 271 271 270 272 274 273 273 276 278 277 275 270 269 269 269 269 266
189 187 186 184 182 184 186 188 191 192 193 196 199 200 204 210 216 223 228 232 236 241 248 255 258 263 268 273 279 281 280 279 276 276 277 274 271 272 272 272 273 272 271 271 271 271 272 275 278 277 274 269 266 266 265 261 259 259 259 260 261 261 261 259 257 257 259 263 270 272 270 271 274 274 271 270 270 272 276 275 270 267 268 268 267
187 185 184 183 182 183 185 187 188 190 192 193 195 198 203 209 214 220 227 231 235 242 251 257 260 265 271 278 284 286 286 283 279 278 279 276 274 275 276 276 277 277 276 275 275 275 273 272 272 270 266 263 261 262 262 260 256 255 255 256 257 259 259 258 258 257 258 261 266 269 270 270 273 276 276 272 266 265 269 273 275 272 266 263 264
185 184 183 182 182 182 184 185 186 187 189 191 194 198 203 208 213 219 226 231 238 247 255 260 260 265 274 284 290 293 287 280 279 282 279 277 277 279 281 282 282 282 280 278 276 274 271 267 265 264 262 260 258 258 259 258 255 255 255 253 255 258 257 256 255 254 255 259 260 264 268 269 273 279 282 279 271 266 264 263 268 273 269 264 262
182 182 180 179 180 181 181 181 181 183 186 190 195 199 204 210 214 219 226 232 240 249 255 260 262 267 279 288 292 291 281 277 288 292 283 279 282 285 286 286 285 284 282 280 279 276 273 270 268 267 266 264 263 262 261 260 258 257 255 252 253 257 257 255 253 251 252 256 256 258 262 263 267 277 281 279 277 275 271 264 262 268 270 266 261
180 179 176 175 177 178 177 177 178 182 186 190 195 200 204 210 215 220 226 233 242 250 255 261 264 269 281 288 288 287 283 285 296 296 283 281 287 290 291 289 286 286 284 283 283 281 281 280 279 279 279 277 276 274 271 269 267 264 259 253 249 251 253 254 252 247 246 249 250 253 257 258 261 267 272 276 279 279 276 272 266 266 266 261 259
179 178 174 173 175 174 175 176 178 183 188 191 197 202 205 210 215 220 226 232 240 249 257 263 267 271 278 282 285 290 294 300 305 297 285 286 291 292 293 292 290 288 286 286 287 288 289 287 286 287 286 284 283 281 278 276 275 273 269 263 258 255 252 251 249 244 244 245 245 246 248 252 258 261 265 271 275 276 277 279 276 269 261 254 260
178 178 176 175 174 174 176 177 179 184 189 194 199 203 206 211 215 220 225 231 240 248 256 263 269 276 280 282 287 292 300 309 311 301 291 293 296 295 295 293 291 290 290 290 291 291 292 291 290 289 288 287 286 283 281 279 278 277 275 274 271 266 259 256 254 249 247 248 247 243 241 247 253 254 258 265 271 273 274 277 279 276 267 254 263
179 177 176 175 174 175 177 178 180 185 190 195 199 203 206 209 214 219 223 230 238 245 253 263 274 286 290 291 293 296 303 313 314 304 297 299 302 301 297 295 293 292 292 292 292 292 291 292 292 292 290 289 287 284 282 280 280 279 277 276 276 272 267 264 263 261 259 258 257 253 250 255 259 257 256 260 266 272 274 276 279 281 279 270 271
178 175 173 174 174 175 177 179 181 185 190 194 197 200 204 207 211 217 221 229 236 243 257 273 286 297 299 298 299 302 309 317 314 305 303 306 306 305 301 297 295 293 292 291 291 290 290 291 292 292 291 290 288 286 284 281 279 278 277 275 273 272 270 268 266 267 265 262 262 263 261 261 262 262 261 260 259 262 267 273 277 280 283 286 285
175 173 172 173 175 176 177 179 181 185 189 192 194 197 201 204 208 212 218 227 235 244 260 279 291 301 306 307 305 306 314 320 315 306 308 311 310 309 304 300 297 294 292 291 291 290 289 289 290 290 290 289 288 288 287 285 282 278 275 272 270 268 268 267 266 265 262 258 257 260 262 262 261 260 260 259 258 258 260 265 272 275 278 283 285
173 173 172 174 176 177 178 179 180 184 187 188 190 194 198 201 204 207 214 223 232 245 263 284 298 306 312 314 309 306 314 324 321 312 313 314 313 312 307 302 300 296 294 294 294 292 289 290 291 291 290 291 292 291 290 289 286 282 278 274 271 268 265 266 267 265 263 259 255 255 256 256 255 255 256 257 259 259 259 261 264 266 269 275 277
173 174 174 175 176 178 180 180 180 182 185 186 188 192 195 198 200 203 211 221 231 247 268 291 308 313 314 314 310 305 314 327 326 315 314 316 315 313 309 305 302 298 296 297 296 295 294 294 295 295 294 294 295 295 293 291 289 286 283 279 275 271 267 266 266 265 265 264 261 259 259 257 254 254 256 259 260 258 257 256 257 258 261 264 266
175 175 175 176 177 179 181 181 181 182 183 185 187 189 191 194 197 200 209 221 231 248 276 298 312 314 311 313 311 305 311 325 323 312 313 315 315 313 311 308 304 300 300 301 299 299 299 300 300 299 297 296 296 296 296 294 292 289 286 284 280 276 273 271 267 264 264 263 262 262 263 263 261 259 259 262 263 258 252 249 251 253 257 258 260
178 176 175 176 177 179 181 181 182 181 182 184 186 187 189 191 193 199 207 217 229 250 280 299 309 312 311 313 315 308 311 320 317 308 312 315 314 314 312 307 304 303 303 304 303 304 303 302 302 301 299 298 298 299 298 296 294 290 285 283 279 276 275 273 270 268 264 261 258 257 257 258 258 257 258 261 262 255 249 249 248 247 250 258 260
178 176 175 175 177 178 179 181 181 180 182 182 182 185 186 186 190 198 204 209 222 246 273 294 305 313 315 315 315 314 313 315 312 308 311 313 315 315 312 307 305 306 307 307 307 308 307 305 304 303 303 302 301 300 300 298 295 291 286 280 274 273 274 271 268 268 267 263 259 254 250 250 251 252 255 259 258 251 247 246 243 240 243 250 254
175 174 174 174 175 176 177 179 179 179 180 180 179 181 181 182 189 194 196 202 215 239 277 307 310 314 317 312 312 315 311 307 307 309 311 313 315 315 312 309 309 309 309 309 308 308 308 307 305 305 305 304 304 303 302 300 299 296 291 285 279 277 276 271 266 265 265 264 262 255 251 249 249 252 256 257 255 252 249 242 236 235 237 239 243
173 172 171 171 172 173 173 175 175 176 177 176 176 177 177 181 187 187 189 199 211 238 318 331 306 300 305 305 307 310 308 306 307 309 313 314 316 316 313 311 312 312 311 310 308 308 307 306 305 305 306 307 307 306 306 306 305 301 296 292 291 286 279 271 265 261 259 259 258 253 250 247 247 251 257 254 250 251 252 246 237 234 234 235 238
170 168 166 166 167 168 169 171 173 173 174 175 174 173 175 178 181 180 183 187 182 115 18 301 283 287 295 302 305 306 308 311 310 310 314 316 316 318 317 315 316 316 313 309 308 308 307 305 306 308 309 310 309 309 310 310 309 306 302 303 305 299 286 270 260 256 254 252 247 242 241 242 244 250 255 254 250 249 250 247 242 238 236 237 239
165 162 162 160 161 165 167 170 171 171 172 173 171 171 173 174 175 176 172 165 154 150 183 241 274 290 301 306 309 310 312 314 313 313 316 317 318 320 320 320 321 319 315 311 308 306 307 308 310 312 312 312 311 312 313 312 310 310 310 313 318 316 299 269 253 253 254 246 231 229 237 241 243 248 252 256 260 261 257 251 246 241 240 241 241
160 158 157 157 160 163 165 168 169 170 171 171 169 170 172 171 173 173 164 156 158 166 179 234 275 295 307 309 311 315 315 314 315 315 315 317 321 324 324 324 324 322 318 314 310 310 311 312 314 315 315 314 314 314 314 314 313 314 316 319 326 330 319 285 256 248 253 251 237 232 239 241 242 246 250 252 256 261 263 260 253 245 242 243 244
157 155 156 158 161 163 164 165 167 169 171 170 168 170 172 172 173 171 161 156 159 164 176 226 280 301 306 307 310 315 317 316 314 312 313 320 326 328 328 327 326 324 320 316 316 318 317 316 317 319 319 318 317 317 317 317 318 319 322 325 329 333 331 315 285 259 250 252 250 245 244 243 244 248 252 251 250 251 254 259 259 251 244 242 245
157 156 157 158 160 163 165 165 167 169 169 168 169 172 174 173 171 166 161 159 159 159 167 208 289 302 304 307 311 314 317 318 315 313 320 328 331 331 332 331 329 327 324 323 326 326 322 320 322 324 324 324 322 319 319 321 323 324 325 328 328 327 328 325 315 299 275 258 252 250 251 250 250 251 250 248 247 246 246 250 253 251 248 246 246
158 157 158 159 161 164 165 165 167 168 168 168 170 173 174 171 166 164 163 159 154 152 156 181 263 292 303 307 311 316 318 316 316 320 328 334 335 335 336 336 333 331 331 332 333 332 328 328 329 330 331 332 329 326 325 326 328 328 327 327 327 326 326 328 330 327 316 295 274 259 254 254 255 255 251 246 247 249 249 249 249 249 248 246 245
158 157 159 160 160 162 164 165 167 167 166 167 170 174 174 169 164 162 160 149 143 149 163 187 233 285 299 301 308 316 315 313 318 326 333 336 338 339 340 339 336 335 337 339 338 338 338 338 337 335 336 336 334 333 333 332 332 334 333 331 328 326 327 330 330 327 325 319 306 286 268 257 254 257 257 254 252 253 253 252 251 251 248 245 245
156 157 159 161 161 162 164 165 166 166 166 168 171 172 170 165 159 155 152 149 149 154 162 176 224 285 291 301 310 309 308 314 324 333 338 340 342 344 342 341 340 340 343 345 344 342 343 340 338 337 336 335 335 335 334 332 332 333 334 333 329 326 325 326 325 322 320 318 313 305 292 274 259 254 254 256 254 250 247 247 245 244 247 246 244
156 159 162 163 163 163 164 164 164 165 167 169 169 167 163 161 158 150 146 150 154 144 134 135 57 342 311 322 327 319 318 325 332 339 343 345 347 347 344 344 346 347 350 352 350 347 345 339 334 336 335 332 332 333 332 330 329 329 330 331 330 329 326 323 323 322 319 315 311 309 307 298 280 261 250 248 251 248 242 241 239 237 241 244 243
160 162 164 164 164 164 164 163 162 163 165 168 168 164 159 157 156 157 154 149 145 136 118 94 60 42 34 11 356 344 337 338 343 348 351 352 352 351 349 350 352 353 355 357 353 348 345 339 333 334 333 329 327 329 330 328 325 326 328 328 328 329 328 324 322 319 316 315 313 310 308 305 297 282 259 243 242 244 240 236 235 234 239 243 243
163 163 164 163 163 165 165 162 162 163 164 166 167 164 160 153 151 158 162 150 143 143 128 94 90 81 63 36 13 358 350 349 352 355 358 358 357 356 355 356 357 357 359 1 355 345 339 334 330 329 329 327 324 324 326 326 324 323 324 324 326 327 324 321 320 317 314 314 313 309 304 301 302 300 283 256 240 238 240 237 235 237 243 246 245
165 165 166 164 162 164 164 163 163 164 163 164 164 162 159 155 150 153 155 151 152 163 162 134 123 108 92 64 25 4 354 355 360 2 4 3 359 359 4 8 8 6 5 2 353 341 332 327 326 326 326 324 321 321 323 325 324 322 320 322 326 325 322 319 319 318 317 315 312 308 304 301 302 307 304 287 261 244 240 240 238 236 240 246 249
166 165 164 163 162 163 164 163 163 163 162 162 160 155 152 150 148 149 150 150 155 166 166 137 118 101 84 63 37 13 358 357 3 6 7 4 1 6 13 14 8 4 1 357 349 339 330 326 325 324 323 321 320 321 323 325 325 322 320 325 329 326 321 320 321 322 320 315 310 307 306 305 303 303 304 302 289 267 246 239 238 236 233 239 249
163 159 160 161 160 160 161 162 162 162 162 160 157 152 148 146 144 142 141 140 139 142 132 107 106 109 87 49 40 38 20 9 6 7 8 9 11 16 19 12 359 352 351 350 346 339 334 332 329 324 321 320 319 320 323 325 327 324 319 323 329 327 322 323 327 328 325 318 311 307 305 303 303 302 302 301 296 288 272 251 241 239 238 241 246
161 157 158 160 159 159 159 160 162 163 161 157 154 150 146 144 141 136 132 129 126 124 115 91 84 88 58 23 24 38 29 15 8 11 14 16 19 21 19 8 355 348 344 342 341 336 333 335 337 334 331 326 319 320 324 327 329 327 321 323 331 331 327 327 329 329 326 320 313 310 307 303 302 302 300 296 295 294 285 267 250 242 245 246 244
161 159 159 161 161 160 159 158 159 160 157 154 153 150 146 144 140 135 133 132 131 131 125 101 74 51 19 9 19 25 16 6 5 11 16 17 18 18 13 5 356 350 342 339 340 336 334 335 337 339 339 334 323 318 320 325 330 330 323 320 329 335 333 331 332 331 328 323 318 314 311 306 302 300 298 292 289 291 289 278 262 242 241 247 241
161 160 161 161 161 159 158 157 157 157 154 153 153 152 148 145 142 139 139 140 143 145 142 124 96 59 17 20 21 11 360 358 4 7 11 15 17 15 9 2 355 349 343 341 341 339 336 336 337 338 341 338 330 323 325 330 334 333 323 314 323 333 335 335 336 333 329 325 319 315 313 308 303 300 297 290 285 285 287 285 272 249 236 242 235
158 157 159 159 158 158 158 158 157 156 154 154 154 153 150 148 147 146 146 147 150 152 149 143 141 145 108 53 22 354 338 350 3 5 9 14 15 12 7 360 352 347 343 341 341 339 336 337 337 337 339 340 337 335 336 338 338 335 326 319 327 334 335 337 339 337 333 329 325 320 315 310 307 303 297 290 285 283 284 289 280 256 237 233 227
155 154 157 158 157 156 157 157 158 157 156 156 155 154 152 150 149 149 149 150 151 151 147 145 145 139 117 67 7 331 328 3 15 14 17 18 15 10 5 358 351 348 343 341 342 342 339 339 338 337 339 343 343 342 341 342 341 337 331 329 334 338 338 339 341 339 335 332 329 324 316 309 306 304 298 292 291 288 286 293 289 263 238 230 220
155 154 155 157 158 158 158 158 158 158 156 155 155 154 153 151 149 149 150 150 149 147 144 140 134 124 116 101 358 330 16 34 31 26 26 23 17 10 5 359 354 351 348 345 344 343 340 339 339 338 339 341 343 342 340 340 340 338 333 332 339 343 342 341 341 338 335 332 328 325 320 313 308 305 298 294 297 298 296 298 294 269 239 226 211
156 156 156 158 159 160 159 158 157 157 156 155 154 153 153 151 149 149 150 150 148 145 141 136 128 119 112 109 101 67 49 44 40 34 30 25 19 12 6 1 359 357 355 355 353 348 344 341 340 339 339 340 340 341 341 342 342 340 336 337 344 345 343 342 341 339 337 333 328 324 321 316 311 309 305 302 307 307 300 300 297 275 241 218 199
155 155 155 156 157 158 158 157 156 156 155 154 153 152 151 150 149 149 150 150 148 144 139 134 129 120 109 101 88 67 54 47 41 36 32 25 19 13 7 4 3 1 1 2 1 357 352 348 344 343 344 344 345 346 347 348 348 344 340 342 346 347 346 345 343 341 338 335 330 326 324 321 318 316 314 314 317 314 304 301 299 282 244 212 190
155 155 154 153 154 155 156 156 156 154 153 151 150 150 150 150 149 150 151 150 147 143 138 133 129 121 107 95 78 61 54 48 42 37 32 24 17 13 9 6 5 4 4 5 4 2 358 354 350 347 347 347 347 347 348 349 350 348 346 347 349 350 349 347 344 342 341 337 332 329 326 324 323 324 323 321 318 313 305 299 297 288 252 207 188
157 156 155 155 155 155 155 155 155 154 153 151 148 148 149 150 151 152 153 151 148 143 139 135 130 121 108 94 75 59 53 48 40 35 30 22 16 13 11 8 6 6 6 6 6 4 2 360 357 353 350 348 347 347 348 350 351 350 350 351 352 353 352 350 347 346 345 342 338 335 331 329 329 330 329 325 320 313 305 297 294 286 252 203 187
156 156 156 156 155 154 154 156 156 155 154 152 149 148 150 151 152 153 154 152 148 144 140 136 131 123 112 97 76 61 53 46 38 32 26 19 15 13 10 9 7 6 6 8 8 7 5 4 2 358 354 350 349 349 350 352 352 351 351 352 354 355 355 353 352 351 349 347 345 342 339 337 336 334 331 327 322 317 311 305 303 294 253 203 183
155 156 156 156 154 153 154 156 155 154 154 152 149 150 152 152 153 155 154 151 149 146 141 138 136 128 114 98 77 63 55 45 35 29 22 15 11 10 8 7 7 6 5 7 9 8 7 6 5 2 358 354 352 352 353 355 355 353 352 353 355 357 357 357 356 355 354 352 351 350 348 346 343 341 336 330 324 320 313 310 314 310 270 206 180
157 156 156 156 155 155 156 156 155 155 154 152 150 151 152 153 155 156 154 151 150 148 144 142 141 132 115 101 83 66 56 45 33 25 18 12 9 7 5 5 6 5 5 6 7 7 7 7 6 4 1 358 355 355 355 357 357 354 352 352 355 358 359 360 360 359 358 357 356 355 354 352 349 347 343 337 332 329 321 317 324 327 311 232 177
157 157 156 156 156 156 157 157 156 155 155 154 152 152 153 154 156 157 156 153 150 149 149 148 143 132 117 104 88 70 56 43 31 23 16 11 8 6 4 4 3 3 4 5 5 6 6 6 6 6 4 0 359 359 360 360 358 354 351 352 356 360 1 2 2 3 2 1 360 359 358 356 354 353 351 348 345 341 334 331 336 339 333 314 200
157 157 158 158 158 158 158 158 157 156 156 156 156 155 155 156 158 158 157 154 153 153 154 152 143 133 121 107 90 75 59 41 27 18 14 12 9 6 5 4 3 1 1 2 3 4 5 5 5 6 4 2 2 4 3 1 358 354 352 353 356 0 2 3 3 4 5 4 3 3 2 1 359 359 357 354 350 345 342 344 348 349 347 347 348